Weather History for Marion, OH

Change the Weather History Date:

Friday, May 30, 2014

  Actual Average (KDLZ) Record (KDLZ)
Temperature  
Mean Temperature 66 °F -  
Max Temperature 80 °F 75 °F 90 °F (1969)
Min Temperature 53 °F 53 °F 36 °F (1961)
Cooling Degree Days 1    
Growing Degree Days 16 (Base 50)    
Moisture  
Dew Point 53 °F    
Average Humidity 70    
Maximum Humidity 90    
Minimum Humidity 39    
Precipitation  
Precipitation 0.00 in - - ()
Sea Level Pressure  
Sea Level Pressure 30.16 in    
Wind  
Wind Speed 7 mph (NE)    
Max Wind Speed 13 mph    
Max Gust Speed -    
Visibility 8 miles    
Events      
Averages and records for this station are not official NWS values.
T = Trace of Precipitation, MM = Missing Value Source: NWS Daily Summary

Daily Weather History Graph

Daily Weather History Graph

Search for Another Location

Airport:

Trip Planner

Search our weather history database for the weather conditions in past years. The results will help you decide how hot, cold, wet, or windy it might be!

Date:

Astronomy

May. 30, 2014 Rise Set
Actual Time 6:04 AM EDT 8:55 PM EDT
Civil Twilight 5:32 AM EDT 9:27 PM EDT
Nautical Twilight 4:51 AM EDT 10:08 PM EDT
Astronomical Twilight 4:04 AM EDT 10:56 PM EDT
Moon 7:48 AM EDT (5/30) 10:31 PM EDT (5/30)
Length of Visible Light 15h 55m
Length of Day
14h 50m
Waxing Crescent, 4% of the Moon is Illuminated
May 30
Waxing Crescent
Jun 5
First Quarter
Jun 13
Full
Jun 19
Last Quarter
Jun 27
New

Hourly Weather History & Observations

Time (EDT) Temp. Dew Point Humidity Pressure Visibility Wind Dir Wind Speed Gust Speed Precip Events Conditions
12:53 AM 57.0 °F 51.1 °F 81% 30.14 in 7.0 mi NNE 5.8 mph - N/A   Clear
1:53 AM 55.0 °F 51.1 °F 86% 30.13 in 6.0 mi NE 8.1 mph - N/A   Clear
2:53 AM 54.0 °F 50.0 °F 86% 30.13 in 6.0 mi NE 6.9 mph - N/A   Clear
3:53 AM 53.1 °F 50.0 °F 89% 30.13 in 5.0 mi NE 3.5 mph - N/A   Clear
4:53 AM 53.1 °F 50.0 °F 89% 30.13 in 6.0 mi NE 4.6 mph - N/A   Clear
5:53 AM 54.0 °F 50.0 °F 86% 30.13 in 5.0 mi North 4.6 mph - N/A   Clear
6:51 AM 53.6 °F 50.0 °F 88% 30.15 in 2.5 mi NNE 4.6 mph - N/A   Clear
6:53 AM 53.1 °F 50.0 °F 89% 30.15 in 2.5 mi NNE 4.6 mph - N/A   Clear
7:04 AM 54.0 °F 51.1 °F 90% 30.16 in 3.0 mi North 3.5 mph - N/A   Clear
7:53 AM 57.0 °F 53.1 °F 87% 30.17 in 4.0 mi NE 5.8 mph - N/A   Clear
8:53 AM 62.1 °F 54.0 °F 75% 30.19 in 8.0 mi ENE 10.4 mph - N/A   Clear
9:53 AM 64.9 °F 54.0 °F 68% 30.19 in 9.0 mi NE 12.7 mph - N/A   Clear
10:53 AM 68.0 °F 54.0 °F 61% 30.19 in 9.0 mi NE 12.7 mph - N/A   Clear
11:53 AM 70.0 °F 54.0 °F 57% 30.19 in 10.0 mi ENE 9.2 mph - N/A   Clear
12:53 PM 73.0 °F 55.0 °F 53% 30.18 in 10.0 mi East 6.9 mph - N/A   Clear
1:53 PM 75.0 °F 55.0 °F 50% 30.17 in 10.0 mi East 5.8 mph - N/A   Clear
2:53 PM 77.0 °F 55.9 °F 48% 30.17 in 10.0 mi Variable 4.6 mph - N/A   Clear
3:53 PM 79.0 °F 55.0 °F 44% 30.15 in 10.0 mi NNE 10.4 mph - N/A   Clear
4:53 PM 79.0 °F 53.1 °F 40% 30.14 in 10.0 mi NE 10.4 mph - N/A   Clear
6:53 PM 78.1 °F 51.1 °F 39% 30.12 in 10.0 mi NE 9.2 mph - N/A   Clear
7:53 PM 73.9 °F 54.0 °F 50% 30.13 in 10.0 mi ENE 6.9 mph - N/A   Clear
8:53 PM 70.0 °F 57.9 °F 65% 30.14 in 9.0 mi NNE 8.1 mph - N/A   Clear
9:53 PM 66.0 °F 57.0 °F 73% 30.17 in 9.0 mi NNE 8.1 mph - N/A   Clear
10:53 PM 64.0 °F 55.9 °F 75% 30.19 in 10.0 mi NNE 4.6 mph - N/A   Clear
11:53 PM 61.0 °F 55.0 °F 81% 30.19 in 10.0 mi ENE 5.8 mph - N/A   Clear